Apalachicola, FL

2:48 AM EDT on August 26, 2016 (GMT -0400)
Apalachicola Municipal

Weather History for KAAF - December, 2012

Change the Weather History Date:

Wednesday, December 12, 2012

  Actual Average Record
Temperature  
Mean Temperature 52 °F 56 °F  
Max Temperature 55 °F 66 °F 78 °F (1985)
Min Temperature 49 °F 46 °F 21 °F (1962)
Degree Days  
Heating Degree Days 13    
Month to date heating degree days 31  
Since 1 July heating degree days 234  
Cooling Degree Days 0    
Month to date cooling degree days 7  
Year to date cooling degree days 2765  
Growing Degree Days 2 (Base 50)    
Moisture  
Dew Point 50 °F    
Average Humidity 91    
Maximum Humidity 96    
Minimum Humidity 86    
Precipitation  
Precipitation 0.40 in 0.11 in 1.67 in (1941)
Month to date precipitation 0.41 1.35  
Year to date precipitation 56.04 55.74  
Sea Level Pressure  
Sea Level Pressure 30.11 in    
Wind  
Wind Speed 8 mph (NNE)    
Max Wind Speed 15 mph    
Max Gust Speed 21 mph    
Visibility 8 miles    
Events Rain    
T = Trace of Precipitation, MM = Missing Value Source: NWS Daily Summary

Daily Weather History Graph

Daily Weather History Graph

Search for Another Location

Airport or City:

Trip Planner

Search our weather history database for the weather conditions in past years. The results will help you decide how hot, cold, wet, or windy it might be!

Date:

Astronomy

Dec. 12, 2012 Rise Set
Actual Time 7:26 AM EST 5:42 PM EST
Civil Twilight 6:59 AM EST 6:08 PM EST
Nautical Twilight 6:30 AM EST 6:37 PM EST
Astronomical Twilight 6:01 AM EST 7:07 PM EST
Moon 6:31 AM EST (12/12) 5:16 PM EST (12/12)
Length of Visible Light 11h 08m
Length of Day
10h 15m
Waning Crescent, 1% of the Moon is Illuminated
Dec 12
Waning Crescent
Dec 13
New
Dec 20
First Quarter
Dec 28
Full
Jan 4
Last Quarter

Hourly Weather History & Observations

Time (EST) Temp. Dew Point Humidity Pressure Visibility Wind Dir Wind Speed Gust Speed Precip Events Conditions
12:03 AM 53.6 °F 51.8 °F 94% 30.13 in 10.0 mi North 4.6 mph - 0.00 in Rain Light Rain
12:22 AM 53.6 °F 51.8 °F 94% 30.14 in 6.0 mi NW 6.9 mph - 0.00 in Rain Rain
12:34 AM 53.6 °F 50.0 °F 88% 30.13 in 8.0 mi North 8.1 mph - 0.01 in Rain Light Rain
12:53 AM 53.6 °F 50.0 °F 88% 30.11 in 10.0 mi NNE 9.2 mph - N/A   Overcast
1:18 AM 53.6 °F 50.0 °F 88% 30.09 in 10.0 mi NNE 8.1 mph - N/A   Overcast
1:53 AM 52.0 °F 50.0 °F 93% 30.08 in 10.0 mi NE 11.5 mph - 0.00 in Rain Light Rain
2:53 AM 51.1 °F 48.9 °F 92% 30.06 in 10.0 mi ENE 9.2 mph - 0.00 in   Overcast
3:53 AM 52.0 °F 48.9 °F 89% 30.03 in 10.0 mi ENE 8.1 mph - N/A   Mostly Cloudy
4:53 AM 52.0 °F 50.0 °F 93% 30.04 in 10.0 mi NE 4.6 mph - N/A   Partly Cloudy
5:37 AM 51.8 °F 50.0 °F 94% 30.05 in 10.0 mi North 5.8 mph - N/A   Overcast
5:53 AM 52.0 °F 48.9 °F 89% 30.04 in 10.0 mi North 6.9 mph - N/A   Overcast
6:44 AM 51.8 °F 48.2 °F 88% 30.08 in 10.0 mi North 9.2 mph - N/A   Overcast
6:53 AM 51.8 °F 48.2 °F 88% 30.08 in 10.0 mi North 8.1 mph - N/A   Overcast
7:53 AM 51.1 °F 48.0 °F 89% 30.11 in 8.0 mi North 9.2 mph - 0.01 in Rain Light Rain
8:10 AM 51.8 °F 48.2 °F 88% 30.11 in 7.0 mi NNE 8.1 mph - 0.00 in Rain Light Rain
8:53 AM 51.1 °F 48.9 °F 92% 30.12 in 8.0 mi NNE 9.2 mph - 0.01 in Rain Light Rain
9:01 AM 51.8 °F 48.2 °F 88% 30.12 in 10.0 mi NNE 9.2 mph - 0.00 in Rain Light Rain
9:13 AM 51.8 °F 48.2 °F 88% 30.12 in 10.0 mi NNE 10.4 mph - 0.00 in   Overcast
9:53 AM 52.0 °F 48.9 °F 89% 30.14 in 5.0 mi North 8.1 mph - 0.01 in Rain Rain
10:53 AM 52.0 °F 50.0 °F 93% 30.15 in 5.0 mi NNE 4.6 mph - 0.09 in Rain Light Rain
11:00 AM 51.8 °F 50.0 °F 94% 30.14 in 3.0 mi NNE 6.9 mph - 0.01 in Rain Rain
11:08 AM 51.8 °F 50.0 °F 94% 30.14 in 2.0 mi North 10.4 mph - 0.05 in Rain Heavy Rain
11:23 AM 51.8 °F 50.0 °F 94% 30.13 in 3.0 mi NNE 6.9 mph - 0.13 in Rain Heavy Rain
11:53 AM 52.0 °F 50.0 °F 93% 30.12 in 5.0 mi NE 6.9 mph - 0.17 in Rain Rain
12:45 PM 53.6 °F 51.8 °F 94% 30.07 in 7.0 mi ENE 9.2 mph - 0.07 in Rain Light Rain
12:53 PM 53.1 °F 51.1 °F 93% 30.07 in 6.0 mi ENE 9.2 mph - 0.08 in Rain Light Rain
1:00 PM 53.6 °F 51.8 °F 94% 30.07 in 9.0 mi ENE 8.1 mph - 0.01 in Rain Light Rain
1:53 PM 54.0 °F 52.0 °F 93% 30.08 in 7.0 mi North 6.9 mph - 0.01 in Rain Light Rain
2:53 PM 54.0 °F 52.0 °F 93% 30.09 in 10.0 mi North 8.1 mph - 0.01 in   Overcast
3:53 PM 55.0 °F 52.0 °F 89% 30.09 in 10.0 mi North 8.1 mph - N/A   Overcast
4:53 PM 55.0 °F 52.0 °F 89% 30.10 in 10.0 mi North 5.8 mph - N/A   Overcast
5:16 PM 55.4 °F 51.8 °F 88% 30.10 in 8.0 mi NNW 5.8 mph - N/A   Overcast
5:53 PM 54.0 °F 52.0 °F 93% 30.12 in 10.0 mi North 3.5 mph - N/A   Overcast
6:53 PM 54.0 °F 51.1 °F 90% 30.13 in 10.0 mi NNW 8.1 mph - N/A   Overcast
7:53 PM 53.1 °F 51.1 °F 93% 30.14 in 4.0 mi NNW 10.4 mph - N/A   Overcast
8:53 PM 51.1 °F 48.9 °F 92% 30.17 in 5.0 mi North 12.7 mph 20.7 mph N/A   Overcast
9:16 PM 50.0 °F 48.2 °F 94% 30.17 in 2.0 mi North 11.5 mph - N/A   Overcast
9:46 PM 50.0 °F 48.2 °F 94% 30.18 in 4.0 mi North 11.5 mph - N/A   Overcast
9:53 PM 50.0 °F 48.0 °F 93% 30.18 in 4.0 mi North 8.1 mph - N/A   Overcast
10:53 PM 50.0 °F 46.9 °F 89% 30.19 in 7.0 mi North 6.9 mph - N/A   Overcast
11:06 PM 48.2 °F 46.4 °F 93% 30.19 in 8.0 mi North 4.6 mph - N/A   Overcast
11:53 PM 50.0 °F 46.0 °F 86% 30.18 in 8.0 mi NNE 10.4 mph - N/A   Overcast